VOE05LS LEBL-LEPA

Flight info

Callsign VOE05LS
Flight time 0h 32m
Altitude 19000
Route LARPA N859 TOLSO
Aircraft A20N/M-SDE2E3FGHIRWXY/LB1

Departure

Time 2026-05-04 15:39
Airport Josep Tarradellas Barcelona-El Prat Airport (LEBL)

Arrival

Time 2026-05-04 16:11
Airport Palma de Mallorca Airport (LEPA)
Time Latitude Longitude Altitude Speed Heading
2026-05-04 15:14 41.28978 2.07901 19 ft 0 kts 335°
2026-05-04 15:23 41.28973 2.07904 19 ft 2 kts 336°
2026-05-04 15:24 41.28941 2.07918 20 ft 2 kts 349°
2026-05-04 15:24 41.28908 2.07917 20 ft 2 kts 26°
2026-05-04 15:25 41.28895 2.07905 21 ft 2 kts 53°
2026-05-04 15:25 41.28889 2.07891 22 ft 1 kts 65°
2026-05-04 15:25 41.28888 2.07889 22 ft 0 kts 66°
2026-05-04 15:27 41.28896 2.07911 21 ft 7 kts 66°
2026-05-04 15:27 41.28983 2.08169 19 ft 13 kts 65°
2026-05-04 15:28 41.28934 2.08321 19 ft 19 kts 202°
2026-05-04 15:28 41.28786 2.08256 15 ft 20 kts 200°
2026-05-04 15:28 41.28724 2.08325 16 ft 14 kts 63°
2026-05-04 15:29 41.28776 2.08478 19 ft 21 kts 65°
2026-05-04 15:30 41.29019 2.09188 18 ft 24 kts 65°
2026-05-04 15:30 41.29225 2.09789 16 ft 24 kts 64°
2026-05-04 15:31 41.29265 2.10049 15 ft 12 kts 111°
2026-05-04 15:31 41.29262 2.10061 16 ft 0 kts 111°
2026-05-04 15:35 41.29256 2.10079 14 ft 6 kts 112°
2026-05-04 15:35 41.29235 2.10172 15 ft 14 kts 89°
2026-05-04 15:35 41.29237 2.10298 14 ft 11 kts 152°
2026-05-04 15:36 41.29185 2.10221 18 ft 0 kts 246°
2026-05-04 15:38 41.29170 2.10174 18 ft 32 kts 246°
2026-05-04 15:38 41.28940 2.09506 20 ft 123 kts 245°
2026-05-04 15:38 41.28506 2.08249 360 ft 164 kts 245°
2026-05-04 15:39 41.28000 2.06835 1023 ft 172 kts 241°
2026-05-04 15:39 41.27122 2.05779 1867 ft 184 kts 201°
2026-05-04 15:39 41.24097 2.05731 3429 ft 233 kts 184°
2026-05-04 15:40 41.22455 2.05446 4600 ft 248 kts 192°
2026-05-04 15:40 41.20725 2.04833 5560 ft 261 kts 198°
2026-05-04 15:40 41.19056 2.04063 7095 ft 247 kts 200°
2026-05-04 15:40 41.17540 2.03154 8646 ft 234 kts 216°
2026-05-04 15:41 41.16431 2.01593 9818 ft 236 kts 242°
2026-05-04 15:41 41.15975 1.99491 10813 ft 241 kts 269°
2026-05-04 15:41 41.16318 1.97317 11787 ft 245 kts 297°
2026-05-04 15:41 41.17399 1.95574 12719 ft 249 kts 323°
2026-05-04 15:42 41.18826 1.94179 13405 ft 267 kts 323°
2026-05-04 15:42 41.20353 1.92687 14207 ft 274 kts 323°
2026-05-04 15:42 41.21895 1.91165 15071 ft 278 kts 323°
2026-05-04 15:42 41.23496 1.89695 15846 ft 283 kts 329°
2026-05-04 15:43 41.25377 1.88700 16201 ft 305 kts 351°
2026-05-04 15:43 41.27569 1.88810 16412 ft 329 kts 14°
2026-05-04 15:43 41.29721 1.90093 16627 ft 352 kts 32°
2026-05-04 15:43 41.31687 1.92180 16898 ft 371 kts 48°
2026-05-04 15:44 41.33121 1.95052 17562 ft 377 kts 64°
2026-05-04 15:44 41.34035 1.98342 18330 ft 380 kts 75°
2026-05-04 15:44 41.34597 2.01728 18763 ft 383 kts 83°
2026-05-04 15:44 41.34550 2.05285 18944 ft 384 kts 101°
2026-05-04 15:45 41.33684 2.08636 19000 ft 384 kts 119°
2026-05-04 15:45 41.32090 2.11444 18999 ft 383 kts 137°
2026-05-04 15:45 41.29900 2.13464 19001 ft 383 kts 155°
2026-05-04 15:45 41.27368 2.14541 19000 ft 383 kts 167°
2026-05-04 15:46 41.24768 2.15290 18999 ft 382 kts 169°
2026-05-04 15:46 41.22159 2.16013 19000 ft 382 kts 168°
2026-05-04 15:46 41.19561 2.16770 18999 ft 382 kts 168°
2026-05-04 15:46 41.16968 2.17565 19000 ft 382 kts 167°
2026-05-04 15:47 41.14373 2.18384 18999 ft 382 kts 167°
2026-05-04 15:47 41.11820 2.19202 18999 ft 382 kts 167°
2026-05-04 15:47 41.09199 2.20044 18999 ft 382 kts 167°
2026-05-04 15:47 41.06646 2.20865 19000 ft 382 kts 167°
2026-05-04 15:48 41.04062 2.21694 19001 ft 382 kts 167°
2026-05-04 15:48 41.01476 2.22523 19000 ft 382 kts 167°
2026-05-04 15:48 40.96304 2.24177 19001 ft 382 kts 167°
2026-05-04 15:49 40.93711 2.25004 18999 ft 382 kts 167°
2026-05-04 15:49 40.91124 2.25829 19000 ft 382 kts 167°
2026-05-04 15:49 40.88532 2.26655 19000 ft 382 kts 167°
2026-05-04 15:49 40.85947 2.27478 19001 ft 382 kts 167°
2026-05-04 15:50 40.83359 2.28301 18999 ft 382 kts 167°
2026-05-04 15:50 40.80774 2.29122 19000 ft 382 kts 167°
2026-05-04 15:50 40.78214 2.29935 18999 ft 382 kts 167°
2026-05-04 15:50 40.75629 2.30755 18999 ft 382 kts 167°
2026-05-04 15:51 40.73039 2.31575 18999 ft 382 kts 167°
2026-05-04 15:51 40.70434 2.32459 18997 ft 382 kts 161°
2026-05-04 15:51 40.68121 2.34060 19002 ft 383 kts 144°
2026-05-04 15:51 40.66012 2.36222 18999 ft 383 kts 141°
2026-05-04 15:52 40.63949 2.38454 19000 ft 383 kts 141°
2026-05-04 15:52 40.61879 2.40666 19000 ft 383 kts 142°
2026-05-04 15:52 40.59795 2.42855 19000 ft 383 kts 142°
2026-05-04 15:52 40.57704 2.45031 19003 ft 383 kts 142°
2026-05-04 15:53 40.55608 2.47203 19000 ft 383 kts 142°
2026-05-04 15:53 40.53518 2.49365 19002 ft 383 kts 142°
2026-05-04 15:53 40.51419 2.51535 18999 ft 383 kts 142°
2026-05-04 15:53 40.49327 2.53697 19003 ft 383 kts 142°
2026-05-04 15:54 40.47228 2.55863 18999 ft 383 kts 142°
2026-05-04 15:54 40.45135 2.58023 18996 ft 383 kts 142°
2026-05-04 15:54 40.43042 2.60180 18817 ft 380 kts 142°
2026-05-04 15:54 40.40968 2.62315 18402 ft 378 kts 142°
2026-05-04 15:55 40.38908 2.64434 17867 ft 375 kts 142°
2026-05-04 15:55 40.36877 2.66522 17302 ft 373 kts 142°
2026-05-04 15:55 40.34845 2.68608 16746 ft 370 kts 142°
2026-05-04 15:55 40.32825 2.70681 16181 ft 367 kts 142°
2026-05-04 15:56 40.30824 2.72733 15634 ft 364 kts 142°
2026-05-04 15:56 40.28838 2.74767 15085 ft 361 kts 142°
2026-05-04 15:56 40.26870 2.76781 14540 ft 358 kts 142°
2026-05-04 15:56 40.24914 2.78781 14000 ft 355 kts 142°
2026-05-04 15:57 40.22978 2.80760 13447 ft 352 kts 142°
2026-05-04 15:57 40.21046 2.82733 12920 ft 349 kts 142°
2026-05-04 15:57 40.19158 2.84658 12389 ft 347 kts 142°
2026-05-04 15:57 40.17262 2.86592 11863 ft 344 kts 142°
2026-05-04 15:58 40.15381 2.88507 11338 ft 341 kts 142°
2026-05-04 15:58 40.13513 2.90408 10815 ft 339 kts 142°
2026-05-04 15:58 40.11666 2.92287 10337 ft 335 kts 142°
2026-05-04 15:58 40.09859 2.94123 10183 ft 321 kts 142°
2026-05-04 15:59 40.08689 2.95312 10095 ft 312 kts 142°
2026-05-04 15:59 40.07013 2.97014 9972 ft 298 kts 142°
2026-05-04 15:59 40.05420 2.98630 9767 ft 289 kts 142°
2026-05-04 15:59 40.03839 3.00234 9386 ft 287 kts 142°
2026-05-04 16:00 40.02247 3.01846 8982 ft 286 kts 142°
2026-05-04 16:00 40.00698 3.03414 8595 ft 284 kts 142°
2026-05-04 16:00 39.99146 3.04985 8206 ft 282 kts 142°
2026-05-04 16:00 39.97594 3.06554 7818 ft 281 kts 142°
2026-05-04 16:01 39.96057 3.08107 7436 ft 279 kts 142°
2026-05-04 16:01 39.94528 3.09651 7121 ft 275 kts 142°
2026-05-04 16:01 39.92983 3.10882 7017 ft 278 kts 159°
2026-05-04 16:01 39.91081 3.11285 6987 ft 277 kts 183°
2026-05-04 16:02 39.89178 3.11071 6774 ft 274 kts 185°
2026-05-04 16:02 39.87290 3.10832 6418 ft 273 kts 186°
2026-05-04 16:02 39.84135 3.10425 5809 ft 271 kts 186°
2026-05-04 16:03 39.82255 3.10183 5434 ft 270 kts 186°
2026-05-04 16:03 39.80392 3.09947 5086 ft 269 kts 186°
2026-05-04 16:03 39.78536 3.09715 4731 ft 267 kts 186°
2026-05-04 16:03 39.76714 3.09489 4371 ft 266 kts 186°
2026-05-04 16:04 39.74877 3.09262 4032 ft 264 kts 186°
2026-05-04 16:04 39.71287 3.08467 3299 ft 261 kts 208°
2026-05-04 16:04 39.69943 3.06939 2930 ft 259 kts 236°
2026-05-04 16:05 39.68996 3.04946 2581 ft 258 kts 239°
2026-05-04 16:05 39.68110 3.02991 2188 ft 244 kts 240°
2026-05-04 16:05 39.66310 2.99046 2032 ft 256 kts 239°
2026-05-04 16:06 39.65379 2.97063 2039 ft 257 kts 239°
2026-05-04 16:06 39.63073 2.92160 2032 ft 220 kts 239°
2026-05-04 16:07 39.62066 2.90015 2032 ft 200 kts 239°
2026-05-04 16:07 39.60192 2.86036 1779 ft 149 kts 239°
2026-05-04 16:08 39.59667 2.84923 1582 ft 141 kts 239°
2026-05-04 16:08 39.58235 2.81881 1064 ft 129 kts 239°
2026-05-04 16:09 39.57300 2.79895 721 ft 129 kts 239°
2026-05-04 16:09 39.56369 2.77921 379 ft 128 kts 239°
2026-05-04 16:10 39.55434 2.75977 56 ft 128 kts 240°
2026-05-04 16:11 39.54444 2.73829 38 ft 4 kts 242°
2026-05-04 16:11 39.54432 2.73790 36 ft 7 kts 268°
2026-05-04 16:12 39.54453 2.73748 38 ft 0 kts 321°
2026-05-04 16:13 39.54515 2.73701 38 ft 15 kts 329°
2026-05-04 16:14 39.54630 2.73551 38 ft 15 kts 298°
2026-05-04 16:14 39.54720 2.73479 38 ft 0 kts 328°